Time,TemperatureF,DewpointF,PressureIn,WindDirection,WindDirectionDegrees,WindSpeedMPH,WindSpeedGustMPH,Humidity,HourlyPrecipIn,Conditions,Clouds,dailyrainin,SoftwareType,DateUTC
2013-01-20 00:00:00,40.8,29.5,29.81,West,270,19.0,19.0,64,0.00,,,0.02,WUHU216HW,2013-01-20 05:00:00,
2013-01-20 00:01:00,40.8,29.5,29.81,West,270,6.9,19.0,64,0.00,,,0.02,WUHU216HW,2013-01-20 05:01:00,
2013-01-20 00:03:00,40.8,29.5,29.81,West,270,6.9,19.0,64,0.00,,,0.02,WUHU216HW,2013-01-20 05:03:00,
2013-01-20 00:08:00,40.6,28.9,29.82,West,270,8.7,19.0,63,0.00,,,0.02,WUHU216HW,2013-01-20 05:08:00,
2013-01-20 00:13:00,40.4,25.8,29.82,NW,315,7.8,13.1,56,0.00,,,0.02,WUHU216HW,2013-01-20 05:13:00,
2013-01-20 00:18:00,39.9,24.9,29.83,NNW,338,17.8,23.0,55,0.26,,,0.29,WUHU216HW,2013-01-20 05:18:00,
2013-01-20 00:23:00,38.4,23.6,29.84,West,270,32.8,32.8,54,0.30,,,0.33,WUHU216HW,2013-01-20 05:23:00,
2013-01-20 00:28:00,37.5,22.8,29.84,West,270,22.3,32.8,55,0.37,,,0.33,WUHU216HW,2013-01-20 05:28:00,
2013-01-20 00:33:00,37.0,21.8,29.85,North,0,10.5,22.3,54,0.37,,,0.39,WUHU216HW,2013-01-20 05:33:00,
2013-01-20 00:38:00,36.3,21.2,29.86,WNW,293,17.0,22.3,54,0.49,,,0.51,WUHU216HW,2013-01-20 05:38:00,
2013-01-20 00:43:00,35.7,20.3,29.87,North,0,14.5,17.0,53,0.59,,,0.61,WUHU216HW,2013-01-20 05:43:00,
2013-01-20 00:48:00,35.2,19.7,29.88,NNW,338,16.7,19.4,53,0.63,,,0.66,WUHU216HW,2013-01-20 05:48:00,
2013-01-20 00:53:00,34.5,19.5,29.88,NNW,338,6.2,19.4,54,0.73,,,0.76,WUHU216HW,2013-01-20 05:53:00,
2013-01-20 00:58:00,33.4,18.4,29.89,NW,315,4.2,21.0,54,0.92,,,0.92,WUHU216HW,2013-01-20 05:58:00,
2013-01-20 01:03:00,32.9,17.9,29.89,NW,315,10.5,21.0,54,0.96,,,0.96,WUHU216HW,2013-01-20 06:03:00,
2013-01-20 01:08:00,32.3,16.1,29.90,NW,315,16.3,16.3,51,0.96,,,0.98,WUHU216HW,2013-01-20 06:08:00,
2013-01-20 01:13:00,31.6,16.8,29.91,NNW,338,18.1,18.1,54,1.06,,,1.08,WUHU216HW,2013-01-20 06:13:00,
2013-01-20 01:18:00,31.2,16.4,29.91,WNW,293,12.3,18.1,54,0.83,,,1.08,WUHU216HW,2013-01-20 06:18:00,
2013-01-20 01:23:00,30.9,16.5,29.92,WNW,293,2.4,18.1,55,0.83,,,1.16,WUHU216HW,2013-01-20 06:23:00,
2013-01-20 01:28:00,30.7,16.8,29.92,NW,315,19.0,19.4,56,0.77,,,1.16,WUHU216HW,2013-01-20 06:28:00,
2013-01-20 01:33:00,30.5,16.6,29.93,NW,315,7.3,19.4,56,0.77,,,1.16,WUHU216HW,2013-01-20 06:33:00,
2013-01-20 01:38:00,30.2,17.1,29.93,NW,315,15.4,19.0,58,0.55,,,1.16,WUHU216HW,2013-01-20 06:38:00,
2013-01-20 01:43:00,30.0,17.3,29.94,SSW,203,9.3,16.5,59,0.51,,,1.16,WUHU216HW,2013-01-20 06:43:00,
2013-01-20 01:48:00,29.8,16.3,29.95,NW,315,17.8,17.8,57,0.49,,,1.16,WUHU216HW,2013-01-20 06:48:00,
2013-01-20 01:53:00,29.3,15.4,29.95,NNW,338,12.5,17.8,56,0.32,,,1.16,WUHU216HW,2013-01-20 06:53:00,
2013-01-20 01:58:00,28.9,15.1,29.95,NNW,338,20.8,20.8,56,0.22,,,1.16,WUHU216HW,2013-01-20 06:58:00,
2013-01-20 02:03:00,28.5,15.2,29.96,NW,315,22.1,22.1,57,0.18,,,1.16,WUHU216HW,2013-01-20 07:03:00,
2013-01-20 02:08:00,28.4,15.5,29.97,North,0,4.9,22.1,58,0.08,,,1.16,WUHU216HW,2013-01-20 07:08:00,
2013-01-20 02:13:00,28.2,15.7,29.97,NNW,338,8.2,22.1,59,0.08,,,1.16,WUHU216HW,2013-01-20 07:13:00,
2013-01-20 02:18:00,28.0,15.1,29.98,WNW,293,15.8,15.8,58,0.39,,,1.55,WUHU216HW,2013-01-20 07:18:00,
2013-01-20 02:23:00,28.0,15.5,29.98,NW,315,9.1,15.8,59,0.39,,,1.55,WUHU216HW,2013-01-20 07:23:00,
2013-01-20 02:28:00,27.6,15.2,29.99,NNW,338,21.6,21.6,59,0.43,,,1.59,WUHU216HW,2013-01-20 07:28:00,
2013-01-20 02:33:00,27.1,14.2,30.00,WNW,293,7.8,21.6,58,0.57,,,1.59,WUHU216HW,2013-01-20 07:33:00,
2013-01-20 02:38:00,26.7,13.8,30.01,NNW,338,5.5,26.6,58,0.57,,,1.73,WUHU216HW,2013-01-20 07:38:00,
2013-01-20 02:43:00,26.4,13.1,30.01,North,0,8.9,26.6,57,0.57,,,1.73,WUHU216HW,2013-01-20 07:43:00,
2013-01-20 02:48:00,25.8,13.3,30.01,North,0,0.0,14.9,58,0.63,,,1.80,WUHU216HW,2013-01-20 07:48:00,
2013-01-20 02:53:00,25.7,12.4,30.02,NW,315,12.9,15.6,57,0.67,,,1.84,WUHU216HW,2013-01-20 07:53:00,
2013-01-20 02:58:00,25.3,12.5,30.03,North,0,10.5,15.6,58,0.67,,,1.84,WUHU216HW,2013-01-20 07:58:00,
2013-01-20 03:03:00,25.1,12.8,30.03,NW,315,13.1,13.1,58,0.71,,,0.00,WUHU216HW,2013-01-20 08:03:00,
2013-01-20 03:08:00,24.9,12.6,30.04,North,0,9.8,17.0,59,0.75,,,0.04,WUHU216HW,2013-01-20 08:08:00,
2013-01-20 03:13:00,24.9,12.6,30.04,WNW,293,13.4,17.0,59,0.71,,,0.04,WUHU216HW,2013-01-20 08:13:00,
2013-01-20 03:18:00,24.6,12.7,30.04,NNW,338,13.6,14.0,60,0.37,,,0.04,WUHU216HW,2013-01-20 08:18:00,
2013-01-20 03:23:00,24.6,12.7,30.06,WNW,293,18.3,21.2,60,0.32,,,0.04,WUHU216HW,2013-01-20 08:23:00,
2013-01-20 03:28:00,24.4,12.1,30.06,West,270,17.2,21.2,59,0.32,,,0.04,WUHU216HW,2013-01-20 08:28:00,
2013-01-20 03:33:00,24.2,11.9,30.06,North,0,9.1,18.3,59,0.18,,,0.04,WUHU216HW,2013-01-20 08:33:00,
2013-01-20 03:38:00,24.0,11.7,30.06,WNW,293,20.1,20.1,59,0.18,,,0.04,WUHU216HW,2013-01-20 08:38:00,
2013-01-20 03:43:00,24.0,11.7,30.06,WNW,293,8.0,20.1,59,0.12,,,0.04,WUHU216HW,2013-01-20 08:43:00,
2013-01-20 03:48:00,23.9,11.6,30.07,WNW,293,7.3,20.1,59,0.08,,,0.04,WUHU216HW,2013-01-20 08:48:00,
2013-01-20 03:53:00,23.9,12.3,30.07,West,270,18.3,18.3,61,0.08,,,0.04,WUHU216HW,2013-01-20 08:53:00,
2013-01-20 03:58:00,23.9,12.3,30.08,North,0,14.9,18.3,61,0.04,,,0.04,WUHU216HW,2013-01-20 08:58:00,
2013-01-20 04:03:00,23.7,12.1,30.08,NW,315,14.3,18.3,61,0.00,,,0.04,WUHU216HW,2013-01-20 09:03:00,
2013-01-20 04:08:00,23.5,12.3,30.08,NNW,338,11.4,14.3,62,0.00,,,0.04,WUHU216HW,2013-01-20 09:08:00,
2013-01-20 04:13:00,23.3,12.1,30.08,NNW,338,17.0,17.0,62,0.00,,,0.04,WUHU216HW,2013-01-20 09:13:00,
2013-01-20 04:18:00,23.3,12.1,30.08,West,270,8.2,22.5,62,0.00,,,0.04,WUHU216HW,2013-01-20 09:18:00,
2013-01-20 04:23:00,23.1,12.0,30.08,NNW,338,10.5,22.5,62,0.00,,,0.04,WUHU216HW,2013-01-20 09:23:00,
2013-01-20 04:28:00,22.8,12.0,30.08,North,0,8.2,10.5,63,0.00,,,0.04,WUHU216HW,2013-01-20 09:28:00,
2013-01-20 04:33:00,22.8,12.3,30.09,NW,315,16.5,16.5,64,0.00,,,0.04,WUHU216HW,2013-01-20 09:33:00,
2013-01-20 04:38:00,22.6,12.2,30.09,West,270,12.9,16.5,64,0.00,,,0.04,WUHU216HW,2013-01-20 09:38:00,
2013-01-20 04:43:00,22.6,12.2,30.10,NNW,338,8.0,19.6,64,0.00,,,0.04,WUHU216HW,2013-01-20 09:43:00,
2013-01-20 04:48:00,22.4,12.0,30.10,NW,315,15.6,19.6,64,0.02,,,0.06,WUHU216HW,2013-01-20 09:48:00,
2013-01-20 04:53:00,22.2,11.8,30.11,NW,315,11.6,15.6,64,0.02,,,0.06,WUHU216HW,2013-01-20 09:53:00,
2013-01-20 04:58:00,22.1,11.3,30.11,North,0,19.4,19.4,63,0.02,,,0.06,WUHU216HW,2013-01-20 09:58:00,
2013-01-20 05:03:00,21.9,11.1,30.11,NNW,338,21.6,21.6,63,0.02,,,0.06,WUHU216HW,2013-01-20 10:03:00,
2013-01-20 05:08:00,21.9,10.8,30.11,NNW,338,5.3,21.6,62,0.02,,,0.06,WUHU216HW,2013-01-20 10:08:00,
2013-01-20 05:13:00,21.7,11.0,30.11,WNW,293,6.2,16.3,63,0.02,,,0.06,WUHU216HW,2013-01-20 10:13:00,
2013-01-20 05:18:00,21.5,10.8,30.12,North,0,20.1,20.1,63,0.02,,,0.06,WUHU216HW,2013-01-20 10:18:00,
2013-01-20 05:23:00,21.3,10.6,30.12,North,0,4.0,20.1,63,0.02,,,0.06,WUHU216HW,2013-01-20 10:23:00,
2013-01-20 05:28:00,21.0,10.3,30.12,WNW,293,12.7,20.1,63,0.02,,,0.06,WUHU216HW,2013-01-20 10:28:00,
2013-01-20 05:33:00,20.8,10.1,30.12,NW,315,15.4,15.4,63,0.02,,,0.06,WUHU216HW,2013-01-20 10:33:00,
2013-01-20 05:38:00,20.8,10.1,30.13,NW,315,11.1,15.4,63,0.02,,,0.06,WUHU216HW,2013-01-20 10:38:00,
2013-01-20 05:43:00,20.6,9.9,30.13,NW,315,19.4,19.4,63,0.02,,,0.06,WUHU216HW,2013-01-20 10:43:00,
2013-01-20 05:48:00,20.4,10.1,30.13,North,0,6.4,19.4,64,0.00,,,0.06,WUHU216HW,2013-01-20 10:48:00,
2013-01-20 05:53:00,20.4,10.4,30.13,North,0,10.7,19.4,65,0.00,,,0.06,WUHU216HW,2013-01-20 10:53:00,
2013-01-20 05:58:00,20.3,9.9,30.14,NW,315,4.6,14.3,64,0.00,,,0.06,WUHU216HW,2013-01-20 10:58:00,
2013-01-20 06:03:00,20.1,9.4,30.14,North,0,13.8,14.3,63,0.00,,,0.06,WUHU216HW,2013-01-20 11:03:00,
2013-01-20 06:08:00,19.9,9.6,30.14,WSW,248,5.1,13.8,64,0.00,,,0.06,WUHU216HW,2013-01-20 11:08:00,
2013-01-20 06:13:00,19.7,9.7,30.15,NW,315,15.2,15.2,65,0.00,,,0.06,WUHU216HW,2013-01-20 11:13:00,
2013-01-20 06:18:00,19.5,9.5,30.15,NNW,338,11.8,15.2,65,0.00,,,0.06,WUHU216HW,2013-01-20 11:18:00,
2013-01-20 06:23:00,19.2,9.5,30.16,NW,315,12.7,15.2,66,0.00,,,0.06,WUHU216HW,2013-01-20 11:23:00,
2013-01-20 06:28:00,19.2,9.2,30.15,North,0,7.3,12.7,65,0.00,,,0.06,WUHU216HW,2013-01-20 11:28:00,
2013-01-20 06:33:00,19.0,9.0,30.16,NNW,338,12.7,12.7,65,0.00,,,0.06,WUHU216HW,2013-01-20 11:33:00,
2013-01-20 06:38:00,19.0,9.4,30.16,WNW,293,4.6,18.3,66,0.00,,,0.06,WUHU216HW,2013-01-20 11:38:00,
2013-01-20 06:43:00,18.8,9.2,30.16,NW,315,12.5,18.3,66,0.00,,,0.06,WUHU216HW,2013-01-20 11:43:00,
2013-01-20 06:48:00,18.6,8.7,30.17,WNW,293,7.1,12.5,65,0.00,,,0.06,WUHU216HW,2013-01-20 11:48:00,
2013-01-20 06:53:00,18.3,8.7,30.18,NNW,338,8.7,12.5,66,0.00,,,0.06,WUHU216HW,2013-01-20 11:53:00,
2013-01-20 06:58:00,18.3,8.7,30.18,West,270,6.7,11.4,66,0.00,,,0.06,WUHU216HW,2013-01-20 11:58:00,
2013-01-20 07:03:00,18.1,8.6,30.18,NW,315,5.5,8.7,66,0.00,,,0.06,WUHU216HW,2013-01-20 12:03:00,
2013-01-20 07:08:00,17.7,8.4,30.18,West,270,7.6,21.6,66,0.00,,,0.06,WUHU216HW,2013-01-20 12:08:00,
2013-01-20 07:13:00,17.7,8.2,30.18,West,270,6.4,21.6,66,0.00,,,0.06,WUHU216HW,2013-01-20 12:13:00,
2013-01-20 07:18:00,17.6,8.1,30.19,NNW,338,14.3,14.3,66,0.00,,,0.06,WUHU216HW,2013-01-20 12:18:00,
2013-01-20 07:23:00,17.4,8.2,30.19,WNW,293,13.6,14.3,67,0.00,,,0.06,WUHU216HW,2013-01-20 12:23:00,
2013-01-20 07:28:00,17.4,8.2,30.19,WNW,293,10.2,18.7,67,0.00,,,0.06,WUHU216HW,2013-01-20 12:28:00,
2013-01-20 07:33:00,17.4,8.2,30.20,WNW,293,11.1,18.7,67,0.00,,,0.06,WUHU216HW,2013-01-20 12:33:00,
2013-01-20 07:38:00,17.4,8.6,30.21,NNW,338,15.4,15.4,68,0.00,,,0.06,WUHU216HW,2013-01-20 12:38:00,
2013-01-20 07:43:00,17.4,8.6,30.20,West,270,14.5,15.4,68,0.00,,,0.06,WUHU216HW,2013-01-20 12:43:00,
2013-01-20 07:48:00,17.2,8.4,30.21,WNW,293,4.2,17.6,68,0.00,,,0.06,WUHU216HW,2013-01-20 12:48:00,
2013-01-20 07:53:00,17.2,8.4,30.22,NW,315,3.8,17.6,68,0.00,,,0.06,WUHU216HW,2013-01-20 12:53:00,
2013-01-20 07:58:00,17.4,8.6,30.22,WNW,293,5.1,11.6,68,0.00,,,0.06,WUHU216HW,2013-01-20 12:58:00,
2013-01-20 08:03:00,17.2,8.7,30.23,NW,315,5.1,10.7,69,0.00,,,0.06,WUHU216HW,2013-01-20 13:03:00,
2013-01-20 08:08:00,17.4,8.9,30.23,North,0,9.6,9.6,69,0.00,,,0.06,WUHU216HW,2013-01-20 13:08:00,
2013-01-20 08:13:00,17.4,8.9,30.24,NW,315,5.8,9.6,69,0.00,,,0.06,WUHU216HW,2013-01-20 13:13:00,
2013-01-20 08:18:00,17.4,8.9,30.24,NNW,338,6.4,9.6,69,0.00,,,0.06,WUHU216HW,2013-01-20 13:18:00,
2013-01-20 08:24:00,17.4,8.9,30.24,NW,315,11.6,11.6,69,0.00,,,0.06,WUHU216HW,2013-01-20 13:24:00,
2013-01-20 08:29:00,17.4,8.9,30.25,NW,315,10.7,11.6,69,0.00,,,0.06,WUHU216HW,2013-01-20 13:29:00,
2013-01-20 08:34:00,17.2,8.7,30.25,WNW,293,19.6,19.6,69,0.00,,,0.06,WUHU216HW,2013-01-20 13:34:00,
2013-01-20 08:39:00,17.2,8.7,30.26,NW,315,4.9,19.6,69,0.00,,,0.06,WUHU216HW,2013-01-20 13:39:00,
2013-01-20 08:44:00,17.4,9.3,30.26,NW,315,10.5,10.5,70,0.00,,,0.06,WUHU216HW,2013-01-20 13:44:00,
2013-01-20 08:49:00,17.2,9.1,30.27,North,0,14.3,14.3,70,0.00,,,0.06,WUHU216HW,2013-01-20 13:49:00,
2013-01-20 08:54:00,17.4,9.3,30.27,NNW,338,8.9,14.3,70,0.00,,,0.06,WUHU216HW,2013-01-20 13:54:00,
2013-01-20 08:59:00,17.2,9.1,30.28,NNW,338,5.5,11.4,70,0.00,,,0.06,WUHU216HW,2013-01-20 13:59:00,
2013-01-20 09:04:00,17.2,9.1,30.28,NW,315,4.6,9.1,70,0.00,,,0.06,WUHU216HW,2013-01-20 14:04:00,
2013-01-20 09:09:00,17.2,9.4,30.29,WNW,293,13.8,13.8,71,0.00,,,0.06,WUHU216HW,2013-01-20 14:09:00,
2013-01-20 09:14:00,17.2,9.4,30.29,NNW,338,14.5,14.5,71,0.00,,,0.06,WUHU216HW,2013-01-20 14:14:00,
2013-01-20 09:22:00,17.2,9.1,30.29,NW,315,8.0,14.5,70,0.00,,,0.06,WUHU216HW,2013-01-20 14:22:00,
2013-01-20 09:27:00,17.4,9.3,30.31,NW,315,7.6,12.3,70,0.00,,,0.06,WUHU216HW,2013-01-20 14:27:00,
2013-01-20 09:32:00,17.4,9.6,30.31,NW,315,5.5,9.1,71,0.00,,,0.06,WUHU216HW,2013-01-20 14:32:00,
2013-01-20 09:37:00,17.4,9.6,30.31,WNW,293,4.2,8.2,71,0.00,,,0.06,WUHU216HW,2013-01-20 14:37:00,
2013-01-20 09:42:00,17.4,9.6,30.31,NNW,338,5.8,8.2,71,0.00,,,0.06,WUHU216HW,2013-01-20 14:42:00,
2013-01-20 09:47:00,17.4,9.6,30.32,West,270,12.9,12.9,71,0.00,,,0.06,WUHU216HW,2013-01-20 14:47:00,
2013-01-20 09:52:00,17.4,9.6,30.32,NNW,338,4.4,12.9,71,0.00,,,0.06,WUHU216HW,2013-01-20 14:52:00,
2013-01-20 09:57:00,17.4,9.6,30.32,North,0,18.3,18.3,71,0.00,,,0.06,WUHU216HW,2013-01-20 14:57:00,
2013-01-20 10:02:00,17.4,9.6,30.32,NW,315,3.8,18.3,71,0.00,,,0.06,WUHU216HW,2013-01-20 15:02:00,
2013-01-20 10:07:00,17.4,9.6,30.32,NNW,338,8.5,18.3,71,0.00,,,0.06,WUHU216HW,2013-01-20 15:07:00,
2013-01-20 10:12:00,17.4,9.6,30.32,NNW,338,5.5,8.5,71,0.00,,,0.06,WUHU216HW,2013-01-20 15:12:00,
2013-01-20 10:17:00,17.4,9.6,30.34,WNW,293,7.1,7.1,71,0.00,,,0.06,WUHU216HW,2013-01-20 15:17:00,
2013-01-20 10:22:00,17.4,9.6,30.34,WSW,248,4.9,7.1,71,0.00,,,0.06,WUHU216HW,2013-01-20 15:22:00,
2013-01-20 10:27:00,17.4,9.8,30.35,North,0,6.4,8.7,72,0.00,,,0.06,WUHU216HW,2013-01-20 15:27:00,
2013-01-20 10:32:00,17.4,9.6,30.34,WNW,293,6.4,8.7,71,0.00,,,0.06,WUHU216HW,2013-01-20 15:32:00,
2013-01-20 10:37:00,17.4,9.6,30.34,NNW,338,11.8,11.8,71,0.00,,,0.06,WUHU216HW,2013-01-20 15:37:00,
2013-01-20 10:42:00,17.6,9.7,30.35,West,270,5.8,11.8,71,0.00,,,0.06,WUHU216HW,2013-01-20 15:42:00,
2013-01-20 10:47:00,17.6,9.7,30.36,WNW,293,0.0,7.6,71,0.00,,,0.06,WUHU216HW,2013-01-20 15:47:00,
2013-01-20 10:52:00,17.7,9.9,30.35,NW,315,6.7,10.2,71,0.00,,,0.06,WUHU216HW,2013-01-20 15:52:00,
2013-01-20 10:57:00,17.7,9.9,30.36,WNW,293,6.7,12.3,71,0.00,,,0.06,WUHU216HW,2013-01-20 15:57:00,
2013-01-20 11:02:00,17.7,9.9,30.36,NE,45,2.0,12.3,71,0.00,,,0.06,WUHU216HW,2013-01-20 16:02:00,
2013-01-20 11:07:00,17.7,9.9,30.36,NW,315,4.9,12.7,71,0.00,,,0.06,WUHU216HW,2013-01-20 16:07:00,
2013-01-20 11:12:00,17.7,9.9,30.36,NNW,338,13.1,13.1,71,0.00,,,0.06,WUHU216HW,2013-01-20 16:12:00,
2013-01-20 11:17:00,17.7,9.9,30.36,NNW,338,12.5,13.1,71,0.00,,,0.06,WUHU216HW,2013-01-20 16:17:00,
2013-01-20 11:22:00,17.7,10.2,30.35,WNW,293,0.0,13.1,72,0.00,,,0.06,WUHU216HW,2013-01-20 16:22:00,
2013-01-20 11:27:00,17.9,10.4,30.36,NW,315,2.9,12.5,72,0.00,,,0.06,WUHU216HW,2013-01-20 16:27:00,
2013-01-20 11:32:00,18.1,10.5,30.36,North,0,4.6,4.9,72,0.00,,,0.06,WUHU216HW,2013-01-20 16:32:00,
2013-01-20 11:37:00,18.1,10.5,30.36,WNW,293,15.6,15.6,72,0.00,,,0.06,WUHU216HW,2013-01-20 16:37:00,
2013-01-20 11:42:00,17.9,10.4,30.36,WNW,293,7.6,15.6,72,0.00,,,0.06,WUHU216HW,2013-01-20 16:42:00,
2013-01-20 11:47:00,17.9,10.1,30.36,WNW,293,8.2,8.5,71,0.00,,,0.06,WUHU216HW,2013-01-20 16:47:00,
2013-01-20 11:52:00,18.1,10.2,30.36,NNW,338,6.0,8.2,71,0.00,,,0.06,WUHU216HW,2013-01-20 16:52:00,
2013-01-20 11:57:00,18.3,10.1,30.34,NW,315,4.2,11.8,70,0.00,,,0.06,WUHU216HW,2013-01-20 16:57:00,
2013-01-20 12:02:00,18.1,9.9,30.35,NNW,338,4.6,11.8,70,0.00,,,0.06,WUHU216HW,2013-01-20 17:02:00,
2013-01-20 12:07:00,18.3,10.1,30.34,NW,315,3.5,7.3,70,0.00,,,0.06,WUHU216HW,2013-01-20 17:07:00,
2013-01-20 12:12:00,18.3,10.1,30.35,WSW,248,2.4,7.3,70,0.00,,,0.06,WUHU216HW,2013-01-20 17:12:00,
2013-01-20 12:17:00,18.6,10.4,30.34,North,0,4.0,5.1,70,0.00,,,0.06,WUHU216HW,2013-01-20 17:17:00,
2013-01-20 12:48:00,18.6,10.4,30.34,North,0,4.0,5.1,70,0.00,,,0.06,WUHU216HW,2013-01-20 17:48:00,
2013-01-20 12:53:00,19.0,10.4,30.34,WNW,293,8.0,8.0,69,0.00,,,0.06,WUHU216HW,2013-01-20 17:53:00,
2013-01-20 12:58:00,19.2,10.6,30.34,NW,315,10.5,10.5,69,0.00,,,0.06,WUHU216HW,2013-01-20 17:58:00,
2013-01-20 13:03:00,19.4,10.7,30.34,NNW,338,4.4,12.9,69,0.00,,,0.06,WUHU216HW,2013-01-20 18:03:00,
2013-01-20 13:08:00,19.2,10.6,30.34,North,0,4.9,12.9,69,0.00,,,0.06,WUHU216HW,2013-01-20 18:08:00,
2013-01-20 13:13:00,19.2,10.6,30.33,WNW,293,2.0,8.7,69,0.00,,,0.06,WUHU216HW,2013-01-20 18:13:00,
2013-01-20 13:18:00,19.2,10.6,30.33,NNW,338,4.6,8.7,69,0.00,,,0.06,WUHU216HW,2013-01-20 18:18:00,
2013-01-20 13:23:00,19.4,10.7,30.33,NW,315,13.8,13.8,69,0.00,,,0.06,WUHU216HW,2013-01-20 18:23:00,
2013-01-20 13:28:00,19.5,10.9,30.34,NW,315,7.6,13.8,69,0.00,,,0.06,WUHU216HW,2013-01-20 18:28:00,
2013-01-20 13:33:00,19.5,10.9,30.34,WNW,293,4.6,13.8,69,0.00,,,0.06,WUHU216HW,2013-01-20 18:33:00,
2013-01-20 13:38:00,19.5,10.9,30.34,WNW,293,4.6,10.5,69,0.00,,,0.06,WUHU216HW,2013-01-20 18:38:00,
2013-01-20 13:43:00,19.5,10.6,30.33,West,270,6.2,6.2,68,0.00,,,0.06,WUHU216HW,2013-01-20 18:43:00,
2013-01-20 17:54:00,19.7,9.0,30.34,WNW,293,3.3,3.3,63,0.00,,,1.92,WUHU216HW,2013-01-20 22:54:00,
2013-01-20 17:59:00,19.7,8.7,30.34,NW,315,8.2,8.2,62,0.00,,,1.94,WUHU216HW,2013-01-20 22:59:00,
2013-01-20 18:04:00,19.5,8.5,30.34,NW,315,11.1,11.1,62,0.00,,,1.94,WUHU216HW,2013-01-20 23:04:00,
2013-01-20 18:09:00,19.5,8.5,30.34,NW,315,11.1,11.1,62,0.00,,,1.94,WUHU216HW,2013-01-20 23:09:00,
2013-01-20 18:14:00,19.5,8.5,30.34,NW,315,11.1,11.1,62,0.00,,,1.94,WUHU216HW,2013-01-20 23:14:00,
2013-01-20 18:19:00,19.5,8.5,30.34,NW,315,2.2,11.1,62,0.00,,,1.94,WUHU216HW,2013-01-20 23:19:00,
2013-01-20 18:24:00,19.5,8.5,30.34,WSW,248,8.9,11.1,62,0.00,,,1.94,WUHU216HW,2013-01-20 23:24:00,
2013-01-20 18:29:00,19.5,8.5,30.34,NW,315,7.8,8.9,62,0.00,,,1.94,WUHU216HW,2013-01-20 23:29:00,
2013-01-20 18:34:00,19.5,8.5,30.34,North,0,8.2,8.9,62,0.00,,,1.94,WUHU216HW,2013-01-20 23:34:00,
2013-01-20 18:39:00,19.7,8.7,30.34,North,0,8.2,8.2,62,0.00,,,1.94,WUHU216HW,2013-01-20 23:39:00,
2013-01-20 18:44:00,19.7,8.7,30.34,WNW,293,6.9,8.2,62,0.00,,,1.94,WUHU216HW,2013-01-20 23:44:00,
2013-01-20 18:49:00,19.7,8.7,30.33,NW,315,5.8,7.6,62,0.00,,,1.94,WUHU216HW,2013-01-20 23:49:00,
2013-01-20 18:54:00,19.7,8.7,30.33,West,270,4.9,7.6,62,0.00,,,1.94,WUHU216HW,2013-01-20 23:54:00,
2013-01-20 18:59:00,19.7,8.7,30.33,West,270,4.9,5.8,62,0.00,,,1.94,WUHU216HW,2013-01-20 23:59:00,
2013-01-20 19:04:00,19.7,8.7,30.33,NW,315,2.4,9.1,62,0.00,,,1.94,WUHU216HW,2013-01-21 00:04:00,
2013-01-20 19:09:00,19.7,8.7,30.33,NW,315,2.4,9.1,62,0.00,,,1.94,WUHU216HW,2013-01-21 00:09:00,
2013-01-20 19:14:00,19.9,8.9,30.33,West,270,2.2,4.6,62,0.00,,,1.94,WUHU216HW,2013-01-21 00:14:00,
2013-01-20 19:19:00,19.9,8.9,30.33,NNW,338,4.2,5.8,62,0.00,,,1.94,WUHU216HW,2013-01-21 00:19:00,
2013-01-20 19:24:00,19.7,8.7,30.33,West,270,5.5,5.8,62,0.00,,,1.94,WUHU216HW,2013-01-21 00:24:00,
2013-01-20 19:29:00,19.7,8.4,30.33,West,270,6.9,6.9,61,0.00,,,1.94,WUHU216HW,2013-01-21 00:29:00,
2013-01-20 19:34:00,19.5,8.2,30.33,West,270,3.8,6.9,61,0.00,,,1.94,WUHU216HW,2013-01-21 00:34:00,